Home   Weather   Steinbach   Past weeks

Flag for Canada Past Weather in Steinbach, Manitoba, Canada — Yesterday and Last 2 Weeks

Now
52 °F

Cool.


Feels Like: 49 °F
Forecast: N/A
Wind: 7 mph from North

Location: Winnipeg The Forks Man

Current Time: Apr 28, 2017 at 4:38:10 pm

Latest Report: Apr 28, 2017 at 4:00 pm


Visibility: N/A

Pressure: 30.05 "Hg

Humidity: 17%

Dew Point: 8 °F

Location of SteinbachLocation

Past Weather in Steinbach — Graph

°F

Steinbach Temperature Yesterday

Maximum temperature yesterday: 42 °F (at 3:00 pm)
Minimum temperature yesterday: 30 °F (at 7:00 am)
Average temperature yesterday: 37 °F

High & Low Weather Summary for the Past Weeks

 TemperatureHumidityPressure
High70 °F (Apr 14, 6:00 pm)100% (Apr 22, 9:00 am)30.35 "Hg (Apr 22, 9:00 am)
Low24 °F (Apr 17, 7:00 am)19% (Apr 28, 1:00 pm)29.59 "Hg (Apr 14, 9:00 pm)
Average41 °F63%30.02 "Hg
* Reported Apr 13 3:00 pm — Apr 28 3:00 pm, Steinbach, Weather by CustomWeather, © 2017

Note: Actual official high and low records may vary slightly from our data, if they occured in-between our weather recording intervals... More about our weather records

Advertising

Steinbach Weather History for the Previous 24 Hours

Scroll right to see more
 ConditionsComfort  
Time TempWeatherWind HumidityBarometerVisibility
3:00 pm
Fri, Apr 28
51 °FCool.8 mph19%30.04 "HgN/A
2:00 pm49 °FCool.8 mph20%30.02 "HgN/A
1:00 pm47 °FCool.8 mph19%30.01 "HgN/A
12:00 pm45 °FCool.9 mph21%30.01 "HgN/A
11:00 am42 °FQuite cool.8 mph24%30.00 "HgN/A
10:00 am39 °FChilly.9 mph28%29.98 "HgN/A
9:00 am36 °FChilly.5 mph48%29.97 "HgN/A
8:00 am32 °FChilly.5 mph52%29.96 "HgN/A
7:00 am31 °FChilly.5 mph49%29.93 "HgN/A
6:00 am32 °FChilly.3 mph52%29.91 "HgN/A
5:00 am32 °FChilly.2 mph58%29.89 "HgN/A
4:00 am33 °FChilly.2 mph54%29.88 "HgN/A
3:00 am35 °FChilly.2 mph60%29.87 "HgN/A
2:00 am36 °FChilly.2 mph60%29.86 "HgN/A
1:00 am35 °FChilly.2 mph64%29.86 "HgN/A
12:00 am37 °FChilly.7 mph64%29.85 "HgN/A
11:00 pm
Thu, Apr 27
38 °FChilly.6 mph57%29.84 "HgN/A
10:00 pm39 °FChilly.3 mph61%29.82 "HgN/A
9:00 pm40 °FChilly.6 mph52%29.79 "HgN/A
8:00 pm40 °FQuite cool.9 mph51%29.78 "HgN/A
7:00 pm40 °FChilly.9 mph60%29.79 "HgN/A
6:00 pm38 °FChilly.10 mph63%29.77 "HgN/A
5:00 pm40 °FChilly.14 mph60%29.74 "HgN/A
4:00 pm41 °FQuite cool.14 mph56%29.73 "HgN/A
Weather by CustomWeather, © 2017

See weather overviewHow to use our weather pages